#timestamp,LO_Frequency,Hit,StdDev 
1582657215.1,286046999.3,N
1582657235.9,286047001.2,N
1582657255.7,286047000.3,N
1582657275.5,286046999.0,N
1582657295.4,286046999.3,N
1582657315.2,286047000.3,N
1582657335.0,286047000.4,N
1582657336.0,286047000.4,N
1582657355.8,286047000.6,N
1582657375.6,286047002.6,N
1582657395.5,286047002.4,N
1582657415.3,286047002.6,N
1582657435.1,286047000.3,N
1582657455.9,286047000.7,N
1582657475.7,286047001.1,N
1582657495.6,286047001.2,N
1582657515.4,286047000.5,N
1582657535.2,286046998.3,N
1582657555.1,286046998.2,N
1582657556.0,286046998.2,N
1582657575.8,286046998.2,N
1582657595.6,286047001.0,N
1582657615.5,286047001.2,N
1582657635.3,286047001.2,N
1582657655.2,286047001.2,N
1582657675.9,286047002.6,N
1582657695.7,286047002.0,N
1582657715.6,286046999.8,N
1582657735.4,286046999.9,N
1582657755.3,286047000.7,N
1582657775.1,286046998.6,N
1582657776.0,286046998.6,N
1582657795.8,286046999.0,N
1582657815.7,286046998.9,N
1582657835.5,286046998.6,N
1582657855.3,286046996.6,N
1582657875.2,286046997.3,N
1582657895.0,286046999.1,N
1582657895.9,286046999.1,N
1582657915.8,286046997.1,N
1582657935.6,286046999.4,N
1582657955.4,286046999.3,N
1582657975.3,286047001.0,N
1582657995.1,286047000.8,N
1582658015.9,286046998.6,N
1582658035.7,286046998.9,N
1582658055.5,286046999.2,N
1582658075.4,286046997.2,N
1582658095.2,286046995.5,Y
1582658115.1,286046999.1,P
1582658116.0,286046999.1,P
1582658135.8,286046996.9,P
1582658155.6,286046995.4,Y
1582658175.5,286046998.3,P
1582658195.3,286047001.2,P
1582658215.2,286047004.1,P
1582658235.9,286047005.9,N
1582658255.7,286047006.0,N
1582658275.6,286047003.2,N
1582658295.4,286047001.8,N
1582658315.2,286047002.5,N
1582658335.1,286047001.5,N
1582658336.0,286047001.5,N
1582658355.8,286046999.7,N
1582658375.7,286047002.3,N
1582658395.5,286047002.1,N
1582658415.3,286047000.5,N
1582658435.2,286047000.3,N
1582658455.0,286047000.4,N
1582658455.9,286047000.4,N
1582658475.8,286047000.8,N
1582658495.6,286047002.8,N
1582658515.4,286047002.1,N
1582658535.3,286047001.6,N
1582658555.1,286047002.6,N
1582658575.8,286047000.3,N
1582658595.7,286047002.6,N
1582658615.5,286047002.3,N
1582658635.4,286047000.3,N
1582658655.2,286046998.5,N
1582658675.0,286047001.1,N
1582658675.9,286047001.1,N
1582658695.8,286046996.5,N
1582658715.6,286046997.0,N
1582658735.5,286046994.9,N
1582658755.3,286046997.0,N
1582658775.1,286046999.9,N
1582658795.9,286047000.7,N
1582658815.7,286047002.4,N
1582658835.6,286047002.2,N
1582658855.4,286047002.0,N
1582658875.2,286047002.0,N
1582658895.1,286047002.5,N
1582658896.0,286047002.5,N
1582658915.8,286047002.5,N
1582658935.6,286046999.7,N
1582658955.5,286047002.8,N
1582658975.3,286047002.8,N
1582658995.2,286047001.5,N
1582659015.9,286047001.7,N
1582659035.7,286047001.3,N
1582659055.6,286047002.6,N
1582659075.4,286047004.2,N
1582659095.3,286047003.1,N
1582659115.1,286047003.4,N
1582659116.0,286047003.4,N
1582659135.8,286047004.4,N
1582659155.7,286047001.3,N
1582659175.5,286047001.7,N
1582659195.3,286047002.7,N
1582659215.2,286047000.0,N
1582659235.0,286047000.8,N
1582659235.9,286047000.8,N
1582659255.8,286047000.8,N
1582659275.6,286047000.0,N
1582659295.4,286047002.0,N
1582659315.3,286047005.6,Y
1582659335.1,286047002.7,P
1582659355.9,286047001.8,P
1582659375.7,286047001.7,P
1582659395.5,286047001.6,Y
1582659415.4,286046999.1,P
1582659435.2,286046999.3,N
1582659455.0,286046998.1,N
1582659456.0,286046998.1,N
1582659475.8,286046999.1,N
1582659495.6,286046999.5,N
1582659515.5,286046999.1,N
1582659535.3,286046998.3,N
1582659555.1,286046998.9,N
1582659575.9,286046996.6,Y
1582659595.7,286046999.6,P
1582659615.6,286046998.7,P
1582659635.4,286046999.0,N
1582659655.2,286047001.2,Y
1582659675.1,286046999.7,P
1582659676.0,286046999.7,N
1582659695.8,286047000.5,N
1582659715.7,286047000.5,N
1582659735.5,286046998.4,Y
1582659755.3,286047000.4,P
1582659775.2,286047000.4,N
1582659795.0,286046998.4,P
1582659795.9,286046998.4,N
1582659815.7,286046999.0,N
1582659835.6,286046997.3,Y
1582659855.4,286046997.9,P
1582659875.3,286046999.1,N
1582659895.1,286046999.6,N
1582659915.8,286046999.5,N
1582659935.7,286046998.4,N
1582659955.5,286046999.1,N
1582659975.4,286046999.3,N
1582659995.2,286047001.0,N
1582660015.0,286047002.1,N
1582660015.9,286047002.1,N
1582660035.8,286047001.4,N
1582660055.6,286047002.6,N
1582660075.4,286047001.6,N
1582660095.3,286047001.0,N
1582660115.1,286047001.0,N
1582660135.9,286046998.1,N
1582660155.7,286046998.4,N
1582660175.5,286046998.5,N
1582660195.4,286046998.7,N
1582660215.2,286046998.2,N
1582660235.0,286046996.5,N
1582660236.0,286046996.5,N
1582660255.8,286046999.4,N
1582660275.6,286046998.3,N
1582660295.5,286046998.3,N
1582660315.3,286046998.4,N
1582660335.1,286046998.3,N
1582660355.9,286046996.6,N
1582660375.7,286046999.1,N
1582660395.6,286046996.9,N
1582660415.4,286046997.0,N
1582660435.2,286046996.8,N
1582660455.1,286046997.9,N
1582660456.0,286046997.9,N
1582660475.8,286046995.1,N
1582660495.6,286046997.8,N
1582660515.5,286046996.1,N
1582660535.3,286046997.5,N
1582660555.2,286046999.2,N
1582660575.9,286046998.7,N
1582660595.7,286046998.8,N
1582660615.6,286046996.9,N
1582660635.4,286046998.1,N
1582660655.2,286046999.6,N
1582660675.1,286046996.8,N
1582660676.0,286046996.8,Y
1582660695.8,286047000.7,P
1582660715.7,286046998.5,N
1582660735.5,286046998.8,N
1582660755.3,286046996.7,Y
1582660775.2,286046998.4,P
1582660795.0,286046998.4,P
1582660795.9,286046998.4,P
